Regional Weather Roundup
Issued by NWS

Home | Current Version | Previous Version | Graphics & Text | Print | Product List | Glossary On
Versions: 1 2 3 4 5 6 7 8 9 10 11 12 13 14 15 16 17 18 19 20 21 22 23 24 25 26 27 28 29 30 31 32 33 34 35 36 37 38 39 40 41 42 43 44 45 46 47 48 49 50
000
ASUS45 KSLC 241010
RWRUT

UTAH REGIONAL WEATHER ROUNDUP
NATIONAL WEATHER SERVICE SALT LAKE CITY UT
300 AM MST SAT FEB 24 2018

UTZ001>011-023>025-241100-

NORTHERN UTAH

CITY           SKY/WX    TMP DP  RH WIND       PRES   REMARKS
BRIGHAM CITY   PTCLDY    12   8  82 SE5       30.17F WCI   4
HILL AFB       MOCLDY    14  12  92 S3        30.13S FOG
LOGAN          HAZE       5  -2  72 E3        30.14F VSB 1/4
OGDEN          CLOUDY    17  13  84 SE5       30.14F FOG     WCI  10
SALT LAKE CITY PTCLDY    17  12  80 SE8       30.16F WCI   7
WENDOVER       CLEAR     18   7  62 CALM      30.18S
HEBER CITY     LGT SNOW   3  -2  78 E7        30.09R WCI  -9
WEST JORDAN    PTCLDY     9   6  87 SE5       30.15F WCI   1

$$

UTZ011>015-024>027-241100-

CENTRAL/NORTHEAST UTAH

CITY           SKY/WX    TMP DP  RH WIND       PRES   REMARKS
PROVO AIRPORT  PTCLDY    12   9  87 CALM      30.19S
MOAB/CANYONLAN CLEAR     22   7  52 W13       30.03F WCI  10
DELTA            N/A      5   3  92 S5        30.18S VSB 1/4 WCI  -4
PRICE          CLEAR     15   3  59 NW8       30.01S WCI   4
RICHFIELD      CLEAR     12   7  79 CALM      30.15S
VERNAL         PTCLDY     5   2  87 CALM      30.00S

$$

UTZ013>016-019>022-027-241100-

SOUTHERN UTAH

CITY           SKY/WX    TMP DP  RH WIND       PRES   REMARKS
BRYCE CANYON   PTCLDY    -5  -7  91 W10       30.03F WCI -23
CEDAR CITY     PTCLDY     4   1  88 E3        30.13F
MILFORD        MOCLDY     2  -2  83 SW3       30.17S
ST GEORGE      MOSUNNY   28  21  75 CALM      30.24F
HANKSVILLE     CLEAR     23   5  46 W7        30.11F WCI  15
KANAB          CLEAR     14   9  79 SE3       30.19F
BLANDING         N/A     21  15  78 NW13G18   30.05F WCI   8

$$

REGIONAL REPORTS     COLORADO/ARIZONA

CITY           SKY/WX    TMP DP  RH WIND       PRES   REMARKS
CRAIG, CO      LGT SNOW  15  10  80 W6        29.95S WCI   6
GRAND JUNCTION CLOUDY    25  16  68 W12       30.00R WCI  14
RIFLE, CO      CLOUDY    23  12  62 NW15      29.95S WCI  10
MONTROSE, CO   CLOUDY    21  18  88 S3        29.98S
CORTEZ, CO     CLEAR     11   9  92 E5        29.99R WCI   3
COLORADO CITY    N/A     23  12  63 CALM      30.17F
PAGE, AZ       CLEAR     29   8  41 W7G20     30.11S WCI  22
GRAND CANYON   PTCLDY    -5  -8  87 NE6       30.08S WCI -18
KINGMAN, AZ    CLEAR     25  22  88 E8        30.21S WCI  16
FLAGSTAFF, AZ  CLEAR     12   8  84 CALM      30.04R

$$

REGIONAL REPORTS    NEVADA/IDAHO/WYOMING

CITY           SKY/WX    TMP DP  RH WIND       PRES   REMARKS
LAS VEGAS, NV  CLEAR     39   7  26 N9        30.26S WCI  33
ELY, NY        MOCLDY    -1  -6  79 S10       30.16S WCI -17
ELKO, NV       MOCLDY    14   8  77 W6        30.20S WCI   5
POCATELLO, ID  CLOUDY    21  11  65 SW21      30.08F WCI   5
BURLEY, ID     CLOUDY    21  10  62 SW16      30.09F WCI   7
FORT BRIDGER,    N/A      7   1  78 W16       29.98F WCI -11
EVANSTON, WY   PTCLDY     3   0  87 W16       29.96F WCI -16
ROCK SPRINGS,  CLEAR      6   0  76 W21       29.92F WCI -14

$$



USA.gov is the U.S. government's official web portal to all federal, state and local government web resources and services.